Tracking 31027 objects as of 19-Jul-2025
HD Live streaming from Space Station
objects crossing your sky now

STARLINK-5387

Track STARLINK-5387 now!
10-day predictions
STARLINK-5387 is classified as:


NORAD ID: 54842
Int'l Code: 2022-177Y
Perigee: 565.3 km
Apogee: 567.1 km
Inclination: 43.0 °
Period: 95.8 minutes
Semi major axis: 6937 km
RCS: Unknown
Launch date: December 28, 2022
Source: United States (US)
Launch site: AIR FORCE EASTERN TEST RANGE (AFETR)
Your satellite tracking list
IRIDIUM 33 DEB
Track 1 satellite(s)




NASA's NSSDC Master Catalog

Two Line Element Set (TLE):
1 54842U 22177Y   25199.70524622  .00000485  00000-0  50966-4 0  9993
2 54842  43.0046 324.2506 0001336 273.2490  86.8199 15.02534940141767
Source of the keplerian elements: AFSPC